Location: Caltech
(34.1382°N, 118.1253°W)
Time: 06:33:03
(UTC-07:00)

NOSS 3-2 (A) - Visible Passes

Search period start: 29 September 2016 00:00
Search period end: 09 October 2016 00:00
Orbit: 892 x 1316 km, 63.4° (Epoch: 27 September)

Date Brightness Start Highest point End Pass type
(mag) Time Alt. Az. Time Alt. Az. Time Alt. Az.
29 Sep 6.3 02:08:52 14° ENE 02:08:52 14° ENE 02:10:46 10° E visible
29 Sep 4.0 03:56:36 66° N 03:57:43 77° ENE 04:05:53 10° SE visible
29 Sep 5.1 05:44:19 15° WNW 05:48:04 20° WSW 05:53:38 10° SSW visible
29 Sep 5.0 19:30:12 10° WSW 19:35:42 36° NW 19:41:39 10° NNE visible
30 Sep 5.4 03:16:14 29° ESE 03:16:14 29° ESE 03:20:02 10° SE visible
30 Sep 4.6 05:03:51 33° WSW 05:03:51 33° WSW 05:10:06 10° S visible
30 Sep 6.2 20:40:28 10° NW 20:42:34 12° NNW 20:44:43 10° NNW visible
01 Oct6.702:35:03ESE02:35:03ESE02:16:56NNWvisible
01 Oct 5.3 04:22:37 25° S 04:22:37 25° S 04:25:42 10° S visible
01 Oct 6.0 19:52:23 10° W 19:56:30 18° NW 20:00:49 10° N visible
02 Oct 5.4 19:05:29 10° WSW 19:10:37 28° NW 19:16:09 10° N visible
04 Oct 6.0 19:28:21 10° WNW 19:31:36 14° NW 19:34:58 10° N visible
07 Oct 6.1 19:04:53 10° NW 19:06:45 11° NNW 19:08:39 10° NNW visible
